Location: Clanezzo
(45.7500°N, 9.6000°E)
Time: 17:38:05
(UTC+00:00)

Envisat - Pass Details

Date: 25 January 2022
Orbit: 764 x 765 km, 98.2° (Epoch: 19 May)

Event Time Altitude Azimuth Distance (km) Brightness Sun altitude
Rises 03:14:42 0° 25° (NNE) 3,240 6.7 -37.6°
Reaches altitude 10° 03:17:29 10° 40° (NE) 2,309 6.0 -37.1°
Maximum altitude 03:21:28 23° 92° (E) 1,596 5.1 -36.4°
Drops below altitude 10° 03:25:26 10° 144° (SE) 2,297 5.7 -35.7°
Sets 03:28:11 0° 159° (SSE) 3,218 6.4 -35.2°
